Flag for Norway Weather past 2 weeks in Langesund, Norway

Now
51 °F

Cool.


Feels Like: 48 °F
Forecast: 50 / 55 °F
Wind: 7 mph from Southwest

Location: Jomfruland Fyr

Current Time: Oct 25, 2014 at 11:28:54 AM

Latest Report: Oct 25, 2014 at 10:00 AM


Visibility: N/A

Pressure: 29.83 "Hg

Humidity: 87%

Dew point: 47 °F

Location of LangesundLocation

Historic Weather in Langesund — Graph

°F

Langesund temperature yesterday

Maximum temperature yesterday: 55 °F (at 7:00 PM)
Minimum temperature yesterday: 53 °F (at 1:00 AM)
Average temperature yesterday: 54 °F

Past Weeks' High & Low Weather Summary

 TemperatureHumidityPressure
High60 °F (Oct 20, 3:00 PM)97% (Oct 19, 3:00 AM)30.06 "Hg (Oct 19, 3:00 AM)
Low38 °F (Oct 16, 9:00 PM)61% (Oct 12, 4:00 PM)29.32 "Hg (Oct 20, 1:00 AM)
Average49 °F88%29.79 "Hg
* Reported Oct 10 10:00 AM — Oct 25 10:00 AM, Langesund, Weather by CustomWeather, © 2014

Note: Actual official high and low records may vary slightly from our data, if they occured in-between our weather recording intervals... More about our weather records

Advertising

Langesund weather history for previous 24 hours

 ConditionsComfort  
Time TempWeatherWind HumidityBarometerVisibility
10:00 AM
Oct 25
51 °FCool.7 mph87%29.83 "HgN/A
9:00 AM50 °FCool.6 mph90%29.82 "HgN/A
8:00 AM50 °FCool.5 mph89%29.80 "HgN/A
7:00 AM50 °FCool.6 mph90%29.78 "HgN/A
6:00 AM51 °FCool.6 mph91%29.77 "HgN/A
5:00 AM52 °FCool.7 mph91%29.76 "HgN/A
4:00 AM51 °FCool.5 mph94%29.75 "HgN/A
3:00 AM52 °FCool.7 mph94%29.76 "HgN/A
2:00 AM53 °FCool.6 mph95%29.77 "HgN/A
1:00 AM54 °FCool.5 mph95%29.78 "HgN/A
12:00 AM54 °FCool.7 mph95%29.79 "HgN/A
11:00 PM
Oct 24
54 °FCool.7 mph95%29.80 "HgN/A
10:00 PM54 °FCool.7 mph94%29.80 "HgN/A
9:00 PM55 °FCool.9 mph94%29.80 "HgN/A
8:00 PM55 °FCool.10 mph93%29.80 "HgN/A
7:00 PM55 °FCool.10 mph93%29.80 "HgN/A
6:00 PM55 °FCool.9 mph94%29.80 "HgN/A
5:00 PM55 °FCool.9 mph94%29.81 "HgN/A
4:00 PM55 °FCool.9 mph95%29.81 "HgN/A
3:00 PM54 °FCool.9 mph95%29.82 "HgN/A
2:00 PM54 °FCool.9 mph95%29.83 "HgN/A
1:00 PM55 °FCool.9 mph95%29.83 "HgN/A
12:00 PM55 °FCool.12 mph95%29.83 "HgN/A
11:00 AM55 °FCool.13 mph95%29.83 "HgN/A
Weather by CustomWeather, © 2014

See weather overviewHow to use our weather pages